TimeEDT,TemperatureF,Dew PointF,Humidity,Sea Level PressureIn,VisibilityMPH,Wind Direction,Wind SpeedMPH,Gust SpeedMPH,PrecipitationIn,Events,Conditions,WindDirDegrees,DateUTC
12:15 AM,57.2,57.2,100,29.84,1.5,Calm,Calm,-,0.22,Rain,Heavy Rain,0,2012-10-19 04:15:00
12:18 AM,57.2,57.2,100,29.84,2.0,Calm,Calm,-,0.22,Rain,Rain,0,2012-10-19 04:18:00
12:25 AM,57.2,57.2,100,29.84,5.0,SE,3.5,-,0.23,Rain,Light Rain,130,2012-10-19 04:25:00
1:23 AM,57.2,57.2,100,29.85,4.0,Calm,Calm,-,0.06,Rain,Rain,0,2012-10-19 05:23:00
1:56 AM,57.9,57.0,97,29.84,4.0,SSE,6.9,-,0.12,Rain,Rain,160,2012-10-19 05:56:00
2:26 AM,57.2,57.2,100,29.82,5.0,WSW,3.5,-,0.05,Rain,Light Rain,240,2012-10-19 06:26:00
2:35 AM,57.2,57.2,100,29.81,4.0,Calm,Calm,-,0.06,Rain,Light Rain,0,2012-10-19 06:35:00
2:42 AM,57.2,57.2,100,29.81,5.0,WNW,4.6,-,0.06,Rain,Light Rain,300,2012-10-19 06:42:00
2:56 AM,57.9,57.0,97,29.81,9.0,Calm,Calm,-,0.06,Rain,Light Rain,0,2012-10-19 06:56:00
3:22 AM,57.2,57.2,100,29.79,8.0,ESE,3.5,-,0.00,,Overcast,120,2012-10-19 07:22:00
3:56 AM,57.9,57.0,97,29.78,7.0,Calm,Calm,-,0.00,,Overcast,0,2012-10-19 07:56:00
4:42 AM,57.2,57.2,100,29.77,4.0,Calm,Calm,-,N/A,,Overcast,0,2012-10-19 08:42:00
4:56 AM,57.9,57.0,97,29.77,4.0,Calm,Calm,-,N/A,,Overcast,0,2012-10-19 08:56:00
5:49 AM,57.2,57.2,100,29.76,2.5,Calm,Calm,-,N/A,,Overcast,0,2012-10-19 09:49:00
5:56 AM,57.9,57.0,97,29.76,2.5,SE,3.5,-,N/A,,Overcast,130,2012-10-19 09:56:00
6:22 AM,57.2,57.2,100,29.76,3.0,Calm,Calm,-,0.00,Rain,Light Rain,0,2012-10-19 10:22:00
6:38 AM,57.2,57.2,100,29.76,2.5,Calm,Calm,-,0.00,,Overcast,0,2012-10-19 10:38:00
6:56 AM,57.9,57.0,97,29.75,1.8,Calm,Calm,-,0.00,,Overcast,0,2012-10-19 10:56:00
7:56 AM,57.9,57.0,97,29.77,2.0,West,3.5,-,0.00,Rain,Light Rain,260,2012-10-19 11:56:00
8:15 AM,57.2,57.2,100,29.77,1.5,Calm,Calm,-,0.02,Rain,Rain,0,2012-10-19 12:15:00
8:31 AM,59.0,57.2,94,29.76,1.2,Calm,Calm,-,0.07,Rain,Rain,0,2012-10-19 12:31:00
8:36 AM,59.0,57.2,94,29.77,1.5,Calm,Calm,-,0.08,Rain,Light Rain,0,2012-10-19 12:36:00
8:45 AM,59.0,57.2,94,29.76,2.5,Calm,Calm,-,0.08,Rain,Light Rain,0,2012-10-19 12:45:00
8:54 AM,59.0,57.2,94,29.76,1.5,East,3.5,-,0.08,,Overcast,100,2012-10-19 12:54:00
8:56 AM,59.0,57.9,96,29.76,1.5,ESE,4.6,-,0.08,,Overcast,110,2012-10-19 12:56:00
9:03 AM,59.0,57.2,94,29.76,3.0,SE,3.5,-,N/A,,Overcast,130,2012-10-19 13:03:00
9:10 AM,59.0,57.2,94,29.76,2.5,SE,3.5,-,N/A,,Overcast,130,2012-10-19 13:10:00
9:22 AM,59.0,57.2,94,29.76,2.5,Calm,Calm,-,N/A,,Overcast,0,2012-10-19 13:22:00
9:56 AM,60.1,57.9,93,29.76,2.5,Calm,Calm,-,N/A,,Overcast,0,2012-10-19 13:56:00
10:03 AM,60.8,57.2,88,29.75,4.0,Calm,Calm,-,N/A,,Overcast,0,2012-10-19 14:03:00
10:10 AM,60.8,57.2,88,29.75,2.5,ESE,3.5,-,N/A,,Overcast,120,2012-10-19 14:10:00
10:32 AM,60.8,59.0,94,29.74,2.5,ESE,5.8,-,N/A,,Overcast,110,2012-10-19 14:32:00
10:56 AM,61.0,59.0,93,29.74,2.5,Calm,Calm,-,N/A,,Overcast,0,2012-10-19 14:56:00
11:03 AM,60.8,59.0,94,29.74,3.0,Calm,Calm,-,N/A,,Overcast,0,2012-10-19 15:03:00
11:56 AM,63.0,60.1,90,29.73,3.0,Calm,Calm,-,N/A,,Overcast,0,2012-10-19 15:56:00
12:56 PM,63.0,60.1,90,29.71,5.0,Calm,Calm,-,N/A,,Overcast,0,2012-10-19 16:56:00
1:48 PM,64.4,60.8,88,29.69,5.0,Calm,Calm,-,N/A,,Overcast,0,2012-10-19 17:48:00
1:52 PM,66.2,62.6,88,29.69,5.0,Calm,Calm,-,N/A,,Overcast,0,2012-10-19 17:52:00
1:56 PM,64.9,61.0,87,29.69,6.0,Calm,Calm,-,N/A,,Mostly Cloudy,0,2012-10-19 17:56:00
2:04 PM,64.4,60.8,88,29.68,6.0,NNE,3.5,-,N/A,,Overcast,30,2012-10-19 18:04:00
2:15 PM,64.4,60.8,88,29.68,6.0,NNW,3.5,-,N/A,,Overcast,330,2012-10-19 18:15:00
3:29 PM,66.2,60.8,83,29.66,10.0,West,4.6,-,N/A,,Mostly Cloudy,280,2012-10-19 19:29:00
3:56 PM,66.0,61.0,84,29.66,10.0,West,4.6,-,N/A,,Partly Cloudy,270,2012-10-19 19:56:00
4:08 PM,66.2,60.8,83,29.65,9.0,West,5.8,-,N/A,,Mostly Cloudy,260,2012-10-19 20:08:00
4:35 PM,66.2,60.8,83,29.64,9.0,West,3.5,-,N/A,,Scattered Clouds,260,2012-10-19 20:35:00
5:56 PM,66.0,60.1,81,29.62,10.0,Calm,Calm,-,N/A,,Clear,0,2012-10-19 21:56:00
6:56 PM,61.0,59.0,93,29.63,8.0,Calm,Calm,-,N/A,,Partly Cloudy,0,2012-10-19 22:56:00
7:28 PM,60.8,59.0,94,29.63,6.0,Calm,Calm,-,N/A,Thunderstorm,Overcast,0,2012-10-19 23:28:00
7:56 PM,62.1,59.0,90,29.63,10.0,East,6.9,-,N/A,,Overcast,90,2012-10-19 23:56:00
8:56 PM,59.0,57.0,93,29.65,10.0,Calm,Calm,-,N/A,,Mostly Cloudy,0,2012-10-20 00:56:00
10:04 PM,57.2,55.4,94,29.65,0.8,Calm,Calm,-,N/A,,Scattered Clouds,0,2012-10-20 02:04:00
10:07 PM,57.2,55.4,94,29.65,1.8,Calm,Calm,-,N/A,,Partly Cloudy,0,2012-10-20 02:07:00
10:09 PM,57.2,55.4,94,29.65,3.0,Calm,Calm,-,N/A,,Partly Cloudy,0,2012-10-20 02:09:00
10:22 PM,57.2,55.4,94,29.65,1.8,Calm,Calm,-,N/A,,Partly Cloudy,0,2012-10-20 02:22:00
10:39 PM,57.2,55.4,94,29.65,1.0,ESE,3.5,-,N/A,,Clear,120,2012-10-20 02:39:00
10:44 PM,55.4,55.4,100,29.65,2.0,Calm,Calm,-,N/A,,Clear,0,2012-10-20 02:44:00
10:51 PM,55.4,55.4,100,29.65,3.0,Calm,Calm,-,N/A,,Clear,0,2012-10-20 02:51:00
10:56 PM,55.9,55.0,97,29.66,2.5,Calm,Calm,-,N/A,,Clear,0,2012-10-20 02:56:00
11:16 PM,57.2,57.2,100,29.65,4.0,NE,3.5,-,N/A,,Clear,50,2012-10-20 03:16:00
11:33 PM,53.6,53.6,100,29.66,1.5,Calm,Calm,-,N/A,,Clear,0,2012-10-20 03:33:00
11:35 PM,53.6,53.6,100,29.66,0.8,Calm,Calm,-,N/A,,Mist,0,2012-10-20 03:35:00
11:44 PM,53.6,53.6,100,29.66,0.2,Calm,Calm,-,N/A,Fog,Fog,0,2012-10-20 03:44:00
11:56 PM,53.1,53.1,100,29.67,0.2,WSW,3.5,-,N/A,Fog,Fog,240,2012-10-20 03:56:00